Location: Unspecified
(38.9820°N, 0.0000°E)
Time: 09:44:27
(UTC+00:00)

Tiangong 2 - Pass Details

Date: 24 May 2019
Orbit: 376 x 388 km, 42.8° (Epoch: 24 June)

Event Time Altitude Azimuth Distance (km) Brightness Sun altitude
Rises 21:45:00 0° 288° (WNW) 2,235 5.7 -22.7°
Reaches altitude 10° 21:47:07 10° 294° (WNW) 1,382 4.6 -22.9°
Enters shadow 21:49:21 36° 326° (NW) 616 2.6 -23.1°
